Location: 22
(39.7117°N, 89.5929°W)
Time: 08:16:44
(UTC-05:00)

S-56A Canister/Altair - Pass Details

Date: 12 February 2023
Orbit: 638 x 2493 km, 38.9° (Epoch: 25 March)

Event Time Altitude Azimuth Distance (km) Brightness Sun altitude
Rises 08:45:45 0° 251° (WSW) 3,318 10.5 18.2°
Reaches altitude 10° 08:48:26 10° 249° (WSW) 2,229 9.7 18.6°
Maximum altitude 08:53:17 66° 167° (SSE) 711 8.0 19.4°
Drops below altitude 10° 08:57:42 10° 86° (E) 2,031 10.5 20.0°
Sets 09:00:02 0° 83° (E) 2,993 11.2 20.4°
